Weather History for Cazaux, France

Change the Weather History Date:

Tuesday, November 20, 2012

  Actual Average Record
Temperature  
Mean Temperature 50 °F -  
Max Temperature 62 °F 50 °F 66 °F (2011)
Min Temperature 37 °F 37 °F 26 °F (1998)
Degree Days  
Heating Degree Days 16    
Moisture  
Dew Point 44 °F    
Average Humidity 88    
Maximum Humidity 100    
Minimum Humidity 55    
Precipitation  
Precipitation 0.00 in - - ()
Sea Level Pressure  
Sea Level Pressure 29.95 in    
Wind  
Wind Speed 3 mph ()    
Max Wind Speed 10 mph    
Max Gust Speed -    
Visibility 5.2 miles    
Events Fog    
Averages and records for this station are not official NWS values.
T = Trace of Precipitation, MM = Missing Value Source: Averaged Metar Reports

Daily Weather History Graph

Daily Weather History Graph

Search for Another Location

Airport:

Trip Planner

Search our weather history database for the weather conditions in past years. The results will help you decide how hot, cold, wet, or windy it might be!

Date:

Astronomy

Nov. 20, 2012 Rise Set
Actual Time 8:07 AM CET 5:32 PM CET
Civil Twilight 7:35 AM CET 6:04 PM CET
Nautical Twilight 7:00 AM CET 6:39 PM CET
Astronomical Twilight 6:25 AM CET 7:14 PM CET
Moon 1:27 PM CET (11/20) No Moon Set
Length of Visible Light 10h 28m
Length of Day
9h 24m
Waxing Crescent, 48% of the Moon is Illuminated
Nov 20
Waxing Crescent
Nov 20
First Quarter
Nov 28
Full
Dec 6
Last Quarter
Dec 13
New

Hourly Weather History & Observations

Time (CET) Temp. Windchill Dew Point Humidity Pressure Visibility Wind Dir Wind Speed Gust Speed Precip Events Conditions
12:00 AM 39.2 °F - 39.2 °F 100% 30.01 in 6.2 mi Calm Calm - N/A   Unknown
12:30 AM 39.2 °F - 39.2 °F 100% 30.01 in 5.6 mi East 2.3 mph - N/A   Unknown
1:00 AM 41.0 °F 39.0 °F 41.0 °F 100% 30.01 in 4.3 mi East 3.5 mph - N/A   Unknown
1:30 AM 41.0 °F 39.0 °F 41.0 °F 100% 29.98 in 0.2 mi ENE 3.5 mph - N/A Fog Fog
2:00 AM 39.2 °F - 39.2 °F 100% 29.98 in 0.3 mi East 2.3 mph - N/A Fog Fog
2:30 AM 39.2 °F - 39.2 °F 100% 29.98 in 5.6 mi East 2.3 mph - N/A   Unknown
3:00 AM 39.2 °F - 39.2 °F 100% 29.98 in 0.5 mi ESE 2.3 mph - N/A Fog Fog
3:30 AM 37.4 °F - 37.4 °F 100% 29.98 in 0.7 mi ESE 2.3 mph - N/A Fog Patches of Fog
4:00 AM 41.0 °F - 41.0 °F 100% 29.98 in 6.2 mi East 2.3 mph - N/A   Unknown
4:30 AM 41.0 °F 39.0 °F 41.0 °F 100% 29.98 in 5.0 mi East 3.5 mph - N/A   Unknown
5:00 AM 41.0 °F - 41.0 °F 100% 29.98 in - East 2.3 mph - N/A Fog Fog
5:30 AM 41.0 °F - 41.0 °F 100% 29.98 in 0.6 mi ESE 2.3 mph - N/A Fog Fog
6:00 AM 41.0 °F - 41.0 °F 100% 29.98 in 3.7 mi East 1.2 mph - N/A   Unknown
6:30 AM 39.2 °F 37.0 °F 39.2 °F 100% 29.98 in 0.6 mi East 3.5 mph - N/A Fog Patches of Fog
7:00 AM 39.2 °F 37.0 °F 39.2 °F 100% 29.98 in 3.7 mi East 3.5 mph - N/A   Unknown
7:30 AM 39.2 °F 35.9 °F 39.2 °F 100% 29.98 in 3.1 mi East 4.6 mph - N/A   Mist
8:00 AM 37.4 °F - 37.4 °F 100% 29.98 in 6.2 mi Calm Calm - N/A   Unknown
8:30 AM 41.0 °F - 41.0 °F 100% 29.98 in 6.2 mi East 2.3 mph - N/A   Unknown
9:00 AM 41.0 °F - 41.0 °F 100% 29.98 in 6.2 mi East 2.3 mph - N/A   Unknown
9:30 AM 42.8 °F - 42.8 °F 100% 30.01 in 6.2 mi Calm Calm - N/A   Unknown
10:00 AM 44.6 °F - 44.6 °F 100% 30.01 in 6.2 mi Variable 2.3 mph - N/A   Unknown
10:30 AM 46.4 °F - 44.6 °F 93% 30.01 in 6.2 mi ESE 1.2 mph - N/A   Unknown
11:00 AM 50.0 °F - 46.4 °F 87% 29.98 in 6.2 mi SE 5.8 mph - N/A   Unknown
11:30 AM 53.6 °F - 48.2 °F 82% 29.98 in 6.2 mi SE 5.8 mph - N/A   Unknown
12:00 PM 57.2 °F - 48.2 °F 72% 29.95 in 6.2 mi ESE 8.1 mph - N/A   Unknown
12:30 PM 57.2 °F - 48.2 °F 72% 29.95 in 6.2 mi SSE 8.1 mph - N/A   Unknown
1:00 PM 59.0 °F - 46.4 °F 63% 29.95 in 6.2 mi SSE 8.1 mph - N/A   Unknown
1:30 PM 60.8 °F - 48.2 °F 63% 29.92 in 6.2 mi SE 10.4 mph - N/A   Unknown
2:00 PM 60.8 °F - 46.4 °F 59% 29.92 in 6.2 mi SE 8.1 mph - N/A   Unknown
2:30 PM 62.6 °F - 46.4 °F 55% 29.92 in 6.2 mi SE 8.1 mph - N/A   Unknown
3:00 PM 62.6 °F - 46.4 °F 55% 29.92 in 6.2 mi SE 6.9 mph - N/A   Unknown
3:30 PM 62.6 °F - 46.4 °F 55% 29.92 in 6.2 mi ESE 6.9 mph - N/A   Unknown
4:00 PM 60.8 °F - 48.2 °F 63% 29.92 in 6.2 mi ESE 5.8 mph - N/A   Unknown
4:30 PM 59.0 °F - 48.2 °F 67% 29.92 in 6.2 mi ESE 5.8 mph - N/A   Unknown
5:00 PM 57.2 °F - 50.0 °F 77% 29.92 in 6.2 mi East 5.8 mph - N/A   Unknown
5:30 PM 55.4 °F - 48.2 °F 77% 29.92 in 6.2 mi East 2.3 mph - N/A   Unknown
6:00 PM 55.4 °F - 48.2 °F 77% 29.92 in 6.2 mi East 5.8 mph - N/A   Unknown
6:30 PM 53.6 °F - 48.2 °F 82% 29.92 in 6.2 mi East 8.1 mph - N/A   Unknown
7:00 PM 53.6 °F - 50.0 °F 88% 29.92 in 6.2 mi East 6.9 mph - N/A   Unknown
7:30 PM 51.8 °F - 50.0 °F 94% 29.89 in 6.2 mi East 5.8 mph - N/A   Unknown
8:00 PM 51.8 °F - 48.2 °F 88% 29.89 in 6.2 mi Variable 2.3 mph - N/A   Unknown
8:30 PM 51.8 °F - 48.2 °F 88% 29.89 in 6.2 mi ESE 3.5 mph - N/A   Unknown
9:00 PM 51.8 °F - 48.2 °F 88% 29.89 in 6.2 mi East 4.6 mph - N/A   Unknown
9:30 PM 50.0 °F - 48.2 °F 94% 29.89 in 6.2 mi ESE 3.5 mph - N/A   Unknown
10:00 PM 48.2 °F - 46.4 °F 93% 29.89 in 6.2 mi SSE 1.2 mph - N/A   Unknown
10:30 PM 48.2 °F - 46.4 °F 93% 29.86 in 6.2 mi SSE 3.5 mph - N/A   Unknown
11:00 PM 50.0 °F - 48.2 °F 94% 29.86 in 6.2 mi SE 2.3 mph - N/A   Unknown
11:30 PM 50.0 °F - 48.2 °F 94% 29.83 in 6.2 mi ESE 4.6 mph - N/A   Unknown